Ulemiste current weather conditions

sailwx.info

Wind from 220 at 9 knots

Air temperature 1.0° C
Visibility: greater than 2.7 NM
Dewpoint -0.0° C
Present weather: Light drizzle. Mist.

Last reported at 2017-Jan-18 15:20 UTC.
Time now 2017-Jan-18 16:08 UTC

Location: N 59°25' E 024°50'.
View on Google Maps.

See reports from other nearby stations

  
Tides and Currents Weather Stations Pressure Air Temp Water Temp Dewpoint Dewpoint Depression Visibility Wind Speed Wind Dir Waves Ship Positions
date/time (UTC)wind fromknots sea level pressurealtimeterstation pressurevisibilityair tempwater tempwave heightnotes
2017-Jan-18 15:20 220 9 2.7 1.0 Light drizzle. Mist.
2017-Jan-18 14:50 230 11 2.4 1.0 Light drizzle. Mist.
2017-Jan-18 14:20 220 9 1.9 1.0 Light drizzle. Mist.
2017-Jan-18 13:50 230 12 1.8 1.0 Light drizzle. Mist.
2017-Jan-18 13:20 220 9 1.9 1.0 Light drizzle. Mist.
2017-Jan-18 12:50 220 8 1.9 1.0 Light drizzle. Mist.
2017-Jan-18 12:20 220 9 1.7 1.0 Mist.
2017-Jan-18 11:50 230 9 2.4 1.0 Mist.
2017-Jan-18 11:20 220 9 1.6 1.0 Mist.
2017-Jan-18 10:50 230 11 1.6 1.0 Light drizzle. Mist.
2017-Jan-18 10:20 230 9 1.8 1.0 Light drizzle. Mist.
2017-Jan-18 09:50 230 9 2.1 1.0 Light drizzle. Mist.
2017-Jan-18 09:20 230 9 2.0 1.0 Light drizzle. Mist.
2017-Jan-18 08:50 230 11 1.9-0.0 Light drizzle. Mist.
2017-Jan-18 08:20 230 11 2.2-0.0 Light drizzle. Mist.
2017-Jan-18 07:50 230 9 2.1-0.0 Light drizzle. Mist.
2017-Jan-18 07:20 230 9 1.8-0.0 Drizzle. Mist.
2017-Jan-18 06:50 230 9 1.8-0.0 Freezing drizzle. Mist.
2017-Jan-18 06:20 230 9 2.4-0.0 Freezing drizzle. Mist.
2017-Jan-18 05:50 230 9 4.9-0.0 Light freezing drizzle.
2017-Jan-18 05:20 220 11 5.4-0.0
2017-Jan-18 04:50 220 9 4.3-1.0 Light freezing drizzle.
2017-Jan-18 04:20 230 9 3.8-1.0 Light snow. Light freezing drizzle.
2017-Jan-18 03:50 230 8 5.4-1.0
2017-Jan-18 03:20 220 8 4.9-1.0 Light snow.
2017-Jan-18 02:50 210 9 4.3-1.0 Light snow.
2017-Jan-18 02:20 230 9 4.3-1.0 Light snow.
2017-Jan-18 01:50 220 9 5.4-1.0
2017-Jan-18 01:20 220 9 5.4-1.0
2017-Jan-18 00:50 220 9 5.4-2.0
2017-Jan-18 00:20 210 7 5.4-2.0
2017-Jan-17 23:50 200 8 5.4-3.0
2017-Jan-17 23:20 200 7 5.4-3.0
2017-Jan-17 22:50 200 7 5.4-3.0
2017-Jan-17 22:20 200 8 5.4-3.0
2017-Jan-17 21:50 200 7 5.4-3.0
2017-Jan-17 21:20 200 7 5.4-3.0
2017-Jan-17 20:50 200 7 5.4-3.0
2017-Jan-17 20:20 190 6 5.4-3.0
2017-Jan-17 19:50 190 6 5.4-3.0
2017-Jan-17 19:20 190 7 5.4-3.0
2017-Jan-17 18:50 190 6 5.4-3.0
2017-Jan-17 18:20 200 6 5.4-3.0
2017-Jan-17 17:50 210 6 5.4-3.0
2017-Jan-17 17:20 200 6 5.4-3.0
2017-Jan-17 16:50 220 7 5.4-2.0
2017-Jan-17 16:20 210 7 5.4-2.0
2017-Jan-17 15:50 210 6 5.4-2.0
2017-Jan-17 15:20 220 6 5.4-2.0
2017-Jan-17 14:50 200 6 5.4-2.0
2017-Jan-17 14:20 220 7 5.4-2.0
2017-Jan-17 13:50 190 4 5.4-3.0
2017-Jan-17 13:20 210 4 5.4-3.0
2017-Jan-17 12:50 220 4 5.4-3.0
2017-Jan-17 12:20 5.4-4.0
2017-Jan-17 11:50 300 4 5.4-4.0
2017-Jan-17 11:20 280 9 5.4-4.0
2017-Jan-17 10:50 270 11 5.4-4.0
2017-Jan-17 10:20 270 12 5.4-3.0
2017-Jan-17 09:50 270 9 5.4-3.0
2017-Jan-17 09:20 260 5 5.4-3.0
2017-Jan-17 08:50 240 5 5.4-3.0 Snow grains.
2017-Jan-17 08:20 240 6 5.4-3.0
2017-Jan-17 07:50 250 6 4.9-3.0 Snow grains.
2017-Jan-17 07:20 230 6 5.4-3.0
2017-Jan-17 06:50 210 6 5.4-4.0
2017-Jan-17 06:20 220 6 5.4-4.0
2017-Jan-17 05:50 210 6 5.4-4.0
2017-Jan-17 05:20 220 6 5.4-4.0
2017-Jan-17 04:50 230 6 5.4-4.0
2017-Jan-17 04:20 220 7 5.4-4.0
2017-Jan-17 03:50 220 6 5.4-4.0
2017-Jan-17 03:20 230 4 5.4-4.0
2017-Jan-17 02:50 220 6 5.4-4.0 Light snow.
2017-Jan-17 02:20 220 5 5.4-4.0
2017-Jan-17 01:50 220 6 5.4-4.0
2017-Jan-17 01:20 220 6 5.4-4.0
2017-Jan-17 00:50 220 7 5.4-4.0 Light snow.
2017-Jan-17 00:20 220 6 5.4-4.0
2017-Jan-16 23:50 210 4 5.4-4.0
2017-Jan-16 23:20 220 6 5.4-4.0
2017-Jan-16 22:50 220 6 5.4-4.0
2017-Jan-16 22:20 230 6 5.4-3.0
2017-Jan-16 21:50 220 2 5.4-3.0
2017-Jan-16 21:20 220 5 5.4-3.0
2017-Jan-16 20:50 210 4 5.4-3.0
2017-Jan-16 20:20 230 4 5.4-3.0
2017-Jan-16 19:50 220 5 5.4-3.0
2017-Jan-16 19:20 210 2 5.4-3.0
2017-Jan-16 18:50 170 4 5.4-3.0
2017-Jan-16 18:20 210 4 5.4-3.0
2017-Jan-16 17:50 190 4 5.4-3.0
2017-Jan-16 17:20 230 2 5.4-3.0
2017-Jan-16 16:50 220 2 5.4-3.0
2017-Jan-16 16:20 5.4-3.0